CSIM (43793 NORAD) Tracking and Keplerian Element Data

This shows tracking and keplerian element data for the satellite.

Feedback or suggestion? Click here.




ElementValue
Catalog43793
NameCSIM
Epoch Orbit540
Epoch Day10.75585277
Epoch Year2019
RAAN84.5269
Inclination97.7583
Eccentricity0.0014401
Argument of Perigee135.2527
Mean Anonmoly224.9858
Mean Motion14.95515966
Decay Rate7.46E-06
L11 43793U 18099AM 19010.75585277 .00000746 00000-0 72494-4 0 9997
L22 43793 97.7583 84.5269 0014401 135.2527 224.9858 14.95515966 5404

Live tracking and technical data element details for CSIM (NORAD 43793). CSIM can be tracked NOW for your location showing map with azimuth and elevation plus other details from your city location.

Track the satellite on the map from your city or location and see movement details for azimuth, elevation, latitude, longitude, range, height, and movement on the map or in text.







IsCatalogInMostPopularTable: catalog: 43793, numindb: 19
Update: records affected: 1



GetName: 43793 CSIM

Hit Count: updated at: Thu, 17 Jan 2019 15:03:58 GMT